Flag for Canada Weather past 2 weeks in Newmarket, Ontario, Canada

Now
64 °F

Low clouds.


Feels Like: 64 °F
Forecast: 63 / 73 °F
Wind: 2 mph from West

Location: Borden

Current Time: Aug 23, 2014 at 4:31:49 AM

Latest Report: Aug 23, 2014 at 3:48 AM


Visibility: 9 mi

Pressure: 30.04 "Hg

Humidity: 100%

Dew point: 64 °F

Location of NewmarketLocation

Historic Weather in Newmarket — Graph

°F

Newmarket temperature yesterday

Maximum temperature yesterday: 75 °F (at 4:00 PM)
Minimum temperature yesterday: 63 °F (at 12:00 AM)
Average temperature yesterday: 66 °F

Past Weeks' High & Low Weather Summary

 TemperatureHumidityPressure
High84 °F (Aug 11, 3:00 PM)100% (Aug 8, 3:00 AM)30.21 "Hg (Aug 8, 3:00 AM)
Low45 °F (Aug 18, 3:02 AM)38% (Aug 15, 3:00 PM)29.64 "Hg (Aug 12, 7:00 PM)
Average62 °F84%29.94 "Hg
* Reported Aug 8 3:00 AM — Aug 23 3:00 AM, Newmarket, Weather by CustomWeather, © 2014

Note: Actual official high and low records may vary slightly from our data, if they occured in-between our weather recording intervals... More about our weather records

Advertising

Newmarket weather history for previous 24 hours

 ConditionsComfort  
Time TempWeatherWind HumidityBarometerVisibility
3:00 AM
Aug 23
64 °FOvercast.No wind100%30.04 "Hg9 mi
2:00 AM64 °FOvercast.2 mph100%30.05 "Hg9 mi
1:00 AM63 °FMostly cloudy.No wind100%30.06 "Hg9 mi
12:59 AM63 °FMostly cloudy.No wind100%30.05 "Hg9 mi
12:03 AM63 °FPartly cloudy.No wind100%30.04 "Hg9 mi
11:00 PM
Aug 22
63 °FMostly cloudy.No wind100%30.04 "Hg6 mi
10:59 PM63 °FMostly cloudy.No wind100%30.04 "Hg5 mi
10:00 PM64 °FPassing clouds.2 mph94%30.04 "Hg9 mi
9:00 PM66 °FSunny.5 mph88%30.03 "Hg9 mi
8:00 PM70 °FSunny.3 mph83%30.01 "Hg9 mi
7:00 PM73 °FSunny.6 mph74%30.00 "Hg9 mi
6:00 PM75 °FSunny.3 mph69%29.99 "Hg9 mi
5:00 PM75 °FSunny.No wind69%29.99 "Hg9 mi
4:00 PM75 °FPassing clouds.5 mph65%30.00 "Hg9 mi
3:00 PM73 °FPartly sunny.3 mph74%30.01 "Hg9 mi
2:04 PM72 °FPartly sunny.2 mph73%30.01 "Hg9 mi
1:00 PM68 °FOvercast.3 mph83%30.02 "Hg9 mi
12:00 PM66 °FLow clouds.2 mph94%30.02 "Hg9 mi
11:00 AM66 °FLow clouds.No wind94%30.02 "Hg9 mi
10:00 AM64 °FLow clouds.2 mph94%30.03 "Hg9 mi
9:47 AM64 °FLow clouds.2 mph94%30.03 "Hg9 mi
9:00 AM63 °FLow clouds.2 mph100%30.02 "Hg4 mi
8:56 AM63 °FLow clouds.3 mph100%30.02 "Hg5 mi
8:04 AM63 °FLow clouds.2 mph100%30.01 "Hg9 mi
7:51 AM63 °FLow clouds.2 mph100%30.01 "Hg9 mi
7:00 AM63 °FLow clouds.No wind100%29.99 "Hg2 mi
6:57 AM63 °FLow clouds.No wind100%29.99 "Hg3 mi
6:00 AM63 °FLow clouds.3 mph100%29.98 "Hg2 mi
5:57 AM63 °FLow clouds.No wind100%29.98 "Hg2 mi
5:00 AM63 °FLow clouds.No wind100%29.98 "Hg2 mi
4:54 AM63 °FLow clouds.No wind100%29.98 "Hg2 mi
4:02 AM63 °FLow clouds.2 mph100%29.99 "Hg5 mi
Weather by CustomWeather, © 2014

See weather overviewHow to use our weather pages